一网星座-0185星 (ONEWEB-0185 )

导读 | 豆包AI

ONEWEB-0185是英国OneWeb低轨宽带星座的卫星,于2021年4月25日发射入轨,属于该星座第六批次组网卫星。卫星重约147.5公斤,配备Ku和Ka波段通信天线,运行在1200公里近地轨道,单星通信能力可达7.5Gbps。它承担全球宽带互联网接入任务,服务航空、海事、偏远地区网络覆盖等场景,助力OneWeb实现全球无缝网络覆盖的建设目标。

Basic Information
目录编号:
48220
目录名称:
ONEWEB-0185
国际标识:
2021-031L
轨道中心:
EARTH
卫星名称:
一网星座-0185星
卫星全名:
一网星座-0185星 (ONEWEB-0185 )
卫星状态:
在轨 (已飞行1784 天)
发射日期:
2021-04-25 UTC
国别 :
英国 (GB)
星等 :
--
Orbit Information
数据来源 国际轨道数据 AOE轨道数据
星历时间 2026-03-14T06:02:27+0800
13小时前
查看轨道信息
2026-03-11T12:00:00+0800
3天前
查看轨道信息
半长轴 7583.934km 7583.947km
偏心率 0.0001728 0.0001526
轨道倾角 87.898° 87.899°
近地点辐角 67.795° 56.681°
升交点赤经 308.704° 309.253°
平近点角 292.336° 249.222°
近地点 1204.486km 1204.652km
远地点 1207.108km 1206.968km
周期 109.547分钟 109.548分钟
每日圈数 13.145013 13.144979
Detailed Information
平衡模式:
三轴稳定
覆盖范围:
全球
运营商:
一网卫星公司
运营商所在国:
英国
制造商(研发单位):
一网卫星公司
制造商所在国:
英国
使用方式:
暂无
Satellite Introduction
OneWeb卫星网络由648颗重约125公斤的微型卫星组成,运行在1200公里的轨道上。 每颗卫星都能够提供至少每秒8千兆位的吞吐量,以使用其高吞吐量的Ku频段有效载荷为家庭和移动平台提供互联网接入。该卫星仍在工作。
2D Orbit Map
3D Orbit Map
Orbit Altitude Analysis Chart
Orbit Inclination Analysis Chart
Orbit Comprehensive Analysis Chart
View Comprehensive Chart